Location: Corona
(40.7470°N, 73.8601°W)
Time: 09:11:17
(UTC+00:00)

Cosmos 614 Rocket - Pass Details

Date: 22 September 2019
Orbit: 733 x 764 km, 74.1° (Epoch: 18 October)

Event Time Altitude Azimuth Distance (km) Brightness Sun altitude
Rises 23:40:58 0° 345° (NNW) 3,232 7.6 -9.9°
Reaches altitude 10° 23:43:26 10° 351° (N) 2,299 6.7 -10.4°
Maximum altitude 23:48:29 49° 67° (ENE) 976 4.2 -11.3°
Drops below altitude 10° 23:53:27 10° 141° (SE) 2,267 6.0 -12.2°
Enters shadow 23:53:53 - 143° (SE) 2,428 6.2 -12.3°
